Location: Unspecified
(49.2170°N, 0.0000°E)
Time: 17:41:39
(UTC+00:00)

Envisat - Pass Details

Date: 28 November 2020
Orbit: 764 x 766 km, 98.1° (Epoch: 20 January)

Event Time Altitude Azimuth Distance (km) Brightness Sun altitude
Rises 05:28:39 0° 19° (NNE) 3,247 6.3 -19.1°
Reaches altitude 10° 05:31:05 10° 26° (NNE) 2,315 5.7 -18.7°
Maximum altitude 05:35:56 43° 98° (E) 1,065 4.3 -18.0°
Drops below altitude 10° 05:40:45 10° 170° (S) 2,298 5.8 -17.2°
Sets 05:43:09 0° 177° (S) 3,219 6.5 -16.8°
